STARLINK-34575

Last updated on Tue Aug 19 2025 00:02:06 GMT+0000 (Coordinated Universal Time)

1 64859U 25152T 25230.58335648 .00042329 00000+0 10823-2 0 9996 2 64859 97.6041 84.1754 0001973 94.3121 249.1700 15.39320603 5426
UTC large
Height (km)
Speed (km/s)
/
Latitude / Longitude
Inclination (degrees)
Orbital Period (minutes)
Azimuth
Elevation
Range (km)
Doppler Factor

Next 0 passes for location: London (51.5072 / 0.1276)

Sorry there are no passes over London.